EW5742 Weather Reports


Display with metric or nautical units.
time (UTC)temp
F
wind
direction
speed
MPH
gust
MPH
rain 1hr
in
rain 24hr
in
rain mn
in
humidity
%
barometer
mb
20260904234531 82 107 0.0 1.0 0.00 0.00 0.00 86 1013.0
20260904233003 83 211 0.0 2.0 0.00 0.00 0.00 84 1013.1
20260904231609 83 60 0.0 6.0 0.00 0.00 0.00 83 1013.1
20260904230041 84 153 0.0 7.0 0.00 0.00 0.00 81 1013.0
20260904224540 84 101 0.0 3.0 0.00 0.00 0.00 80 1012.7
20260904223039 85 8 1.0 6.0 0.00 0.00 0.00 78 1012.8
20260904221539 85 141 2.0 7.0 0.00 0.00 0.00 78 1012.9
20260904220036 86 241 2.0 8.0 0.00 0.00 0.00 77 1012.8
20260904214534 87 113 3.0 8.0 0.00 0.00 0.00 76 1012.9
20260904211521 89 134 0.0 9.0 0.00 0.00 0.00 75 1012.8
20260904210021 89 146 1.0 8.0 0.00 0.00 0.00 75 1012.7
20260904204524 89 248 1.0 10.0 0.00 0.00 0.00 75 1012.7
20260904203016 90 131 1.0 9.0 0.00 0.00 0.00 74 1013.1
20260904201505 89 164 5.0 13.0 0.00 0.00 0.00 74 1013.3
20260904200003 90 148 1.0 7.0 0.00 0.00 0.00 74 1013.6
20260904194628 90 148 3.0 11.0 0.00 0.00 0.00 74 1014.0
20260904193100 90 174 4.0 11.0 0.00 0.00 0.00 75 1014.3
20260904193005 90 162 4.0 11.0 0.00 0.00 0.00 75 1014.3
20260904193003 90 263 5.0 11.0 0.00 0.00 0.00 75 1014.3
20260904191531 90 236 3.0 13.0 0.00 0.00 0.00 76 1014.4
20260904190024 90 97 2.0 9.0 0.00 0.00 0.00 76 1014.5
20260904184553 90 230 4.0 10.0 0.00 0.00 0.00 74 1014.6
20260904183110 91 140 4.0 9.0 0.00 0.00 0.00 74 1014.9
20260904181559 91 109 3.0 13.0 0.00 0.00 0.00 73 1015.1
20260904180157 90 153 3.0 11.0 0.00 0.00 0.00 74 1015.2
20260904174541 90 198 2.0 13.0 0.00 0.00 0.00 74 1015.3
20260904173040 91 57 2.0 6.0 0.00 0.00 0.00 72 1015.3
20260904171513 91 131 1.0 7.0 0.00 0.00 0.00 73 1015.5
20260904170011 90 158 3.0 8.0 0.00 0.00 0.00 73 1015.5
20260904164505 90 148 5.0 9.0 0.00 0.00 0.00 74 1015.6
20260904163003 90 202 2.0 7.0 0.00 0.00 0.00 74 1015.7
20260904161502 90 136 1.0 9.0 0.00 0.00 0.00 74 1016.0
20260904160105 90 139 1.0 7.0 0.00 0.00 0.00 75 1016.1
20260904154542 90 136 1.0 6.0 0.00 0.00 0.00 73 1016.2
20260904153027 90 353 2.0 6.0 0.00 0.00 0.00 74 1016.2
20260904151606 89 297 0.0 2.0 0.00 0.00 0.00 74 1016.3
20260904150054 89 212 0.0 3.0 0.00 0.00 0.00 75 1016.2
20260904144546 89 140 2.0 5.0 0.00 0.00 0.00 74 1016.3
20260904143049 88 360 0.0 3.0 0.00 0.00 0.00 77 1016.2
20260904141543 86 127 0.0 3.0 0.00 0.00 0.00 79 1016.2
20260904140047 86 273 1.0 4.0 0.00 0.00 0.00 79 1016.1
20260904134534 87 105 1.0 7.0 0.00 0.00 0.00 80 1016.1
20260904133034 86 267 0.0 4.0 0.00 0.00 0.00 83 1016.0
20260904131531 85 98 0.0 3.0 0.00 0.00 0.00 86 1016.1
20260904130023 84 277 0.0 2.0 0.00 0.00 0.00 87 1016.0
20260904124601 83 23 0.0 2.0 0.00 0.00 0.00 88 1015.9
20260904123048 81 275 0.0 1.0 0.00 0.00 0.00 92 1015.9
20260904121515 80 335 0.0 1.0 0.00 0.00 0.00 94 1015.8
20260904120008 78 84 0.0 1.0 0.00 0.00 0.00 95 1016.0
20260904114508 77 84 0.0 0.0 0.00 0.00 0.00 95 1016.0
20260904113110 75 84 0.0 0.0 0.00 0.00 0.00 96 1015.9
20260904111511 74 84 0.0 0.0 0.00 0.00 0.00 95 1015.8
20260904110005 74 84 0.0 0.0 0.00 0.00 0.00 95 1015.8
20260904104501 74 84 0.0 0.0 0.00 0.00 0.00 95 1015.7
20260904103009 74 84 0.0 0.0 0.00 0.00 0.00 95 1015.5
20260904101547 74 84 0.0 0.0 0.00 0.00 0.00 95 1015.4
20260904100033 74 84 0.0 0.0 0.00 0.00 0.00 95 1015.3
20260904094532 74 84 0.0 0.0 0.00 0.00 0.00 95 1015.3
20260904093021 75 84 0.0 0.0 0.00 0.00 0.00 95 1015.3
20260904091523 75 84 0.0 0.0 0.00 0.00 0.00 95 1015.4
20260904090019 75 84 0.0 0.0 0.00 0.00 0.00 94 1015.4
20260904084511 75 84 0.0 0.0 0.00 0.00 0.00 94 1015.5
20260904083016 75 84 0.0 0.0 0.00 0.00 0.00 95 1015.5
20260904081510 76 84 0.0 0.0 0.00 0.00 0.00 95 1015.4
20260904080009 76 84 0.0 0.0 0.00 0.00 0.00 94 1015.5
20260904074544 76 84 0.0 0.0 0.00 0.00 0.00 95 1015.5
20260904073035 76 84 0.0 0.0 0.00 0.00 0.00 94 1015.5
20260904071504 76 84 0.0 0.0 0.00 0.00 0.00 94 1015.6
20260904070015 77 84 0.0 0.0 0.00 0.00 0.00 94 1015.6
20260904064507 77 84 0.0 0.0 0.00 0.00 0.00 94 1015.6
20260904063058 77 84 0.0 0.0 0.00 0.00 0.00 94 1015.7
20260904061557 77 84 0.0 1.0 0.00 0.00 0.00 94 1015.7
20260904060058 77 149 0.0 0.0 0.00 0.00 0.00 94 1015.8
20260904054557 77 153 0.0 0.0 0.00 0.00 0.00 94 1016.0
20260904053028 77 148 0.0 0.0 0.00 0.00 0.00 93 1016.1
20260904051528 77 147 0.0 0.0 0.00 0.00 0.00 93 1016.3
20260904050015 77 214 0.0 1.0 0.00 0.00 0.00 93 1016.5
20260904044515 77 215 0.0 1.0 0.00 0.00 0.00 93 1016.6
20260904043014 77 145 0.0 0.0 0.00 0.00 0.00 93 1016.7
20260904041513 77 145 0.0 0.0 0.00 0.00 0.00 93 1016.7
20260904040043 77 145 0.0 0.0 0.00 0.00 0.00 93 1016.9
20260904034542 77 145 0.0 0.0 0.00 0.00 0.00 92 1017.0
20260904033015 78 145 0.0 0.0 0.00 0.00 0.00 92 1017.0
20260904031513 78 145 0.0 0.0 0.00 0.00 0.00 92 1016.9
20260904030003 78 145 0.0 0.0 0.00 0.00 0.00 91 1016.8
20260904024505 79 145 0.0 0.0 0.00 0.00 0.00 91 1016.8
20260904023102 79 145 0.0 0.0 0.00 0.00 0.00 90 1016.8
20260904021504 79 160 0.0 1.0 0.00 0.00 0.00 90 1017.0
20260904020031 79 145 0.0 2.0 0.00 0.00 0.00 89 1017.0
20260904014536 80 129 0.0 1.0 0.00 0.00 0.00 89 1016.9
20260904013112 80 138 0.0 1.0 0.00 0.00 0.00 89 1016.7
20260904013007 80 121 0.0 1.0 0.00 0.00 0.00 89 1016.6
20260904011559 80 115 0.0 2.0 0.00 0.00 0.00 88 1016.4
20260904010051 80 176 0.0 2.0 0.00 0.00 0.00 88 1016.4
20260904004552 81 152 0.0 2.0 0.00 0.00 0.00 88 1016.2
20260904003050 81 142 0.0 3.0 0.00 0.00 0.00 87 1016.0
20260904001603 81 168 0.0 2.0 0.00 0.00 0.00 87 1015.6
20260904000018 81 131 0.0 1.0 0.00 0.00 0.00 86 1015.5